Flag for Austria Weather past 2 weeks in Hollabrunn, Lower Austria, Austria

39 °F

Passing clouds.

Feels Like: 32 °F
Forecast: 45 / 50 °F
Wind: 12 mph from Northwest

Location: Vienna Schwechat-Flughafen Airport

Current Time: Nov 29, 2015 at 1:29:45 AM

Latest Report: Nov 29, 2015 at 12:50 AM

Visibility: N/A

Pressure: 30.09 "Hg

Humidity: 75%

Dew point: 32 °F

Location of HollabrunnLocation

Historic Weather in Hollabrunn — Graph


Hollabrunn temperature yesterday

Maximum temperature yesterday: 43 °F (at 2:20 PM)
Minimum temperature yesterday: 32 °F (at 3:50 AM)
Average temperature yesterday: 38 °F

Past Weeks' High & Low Weather Summary

High68 °F (Nov 18, 10:50 AM)100% (Nov 20, 4:50 PM)30.33 "Hg (Nov 20, 4:50 PM)
Low23 °F (Nov 24, 5:50 AM)35% (Nov 18, 1:20 PM)29.39 "Hg (Nov 20, 9:20 PM)
Average45 °F71%29.94 "Hg
* Reported Nov 13 11:20 PM — Nov 28 11:50 PM, Hollabrunn, Weather by CustomWeather, © 2015

Note: Actual official high and low records may vary slightly from our data, if they occured in-between our weather recording intervals... More about our weather records


Hollabrunn weather history for previous 24 hours

Time TempWeatherWind HumidityBarometerVisibility
11:50 PM
Sat, Nov 28
41 °FClear.15 mph70%30.09 "Hg10 mi
10:50 PM41 °FPassing clouds.17 mph70%30.07 "HgN/A
10:20 PM41 °FPartly cloudy.22 mph70%30.04 "HgN/A
9:20 PM41 °FPassing clouds.23 mph70%30.01 "HgN/A
8:50 PM41 °FPartly cloudy.20 mph70%29.98 "HgN/A
8:20 PM41 °FPartly cloudy.22 mph70%29.98 "HgN/A
7:50 PM41 °FPassing clouds.20 mph70%29.98 "HgN/A
7:20 PM41 °FLight rain. Partly cloudy.16 mph76%29.95 "HgN/A
6:50 PM41 °FLight rain. Partly cloudy.22 mph70%29.95 "HgN/A
6:20 PM41 °FPartly cloudy.21 mph70%29.95 "HgN/A
5:50 PM41 °FPartly cloudy.22 mph70%29.92 "HgN/A
5:20 PM41 °FPartly cloudy.22 mph66%29.92 "HgN/A
4:50 PM41 °FPassing clouds.22 mph66%29.92 "HgN/A
4:20 PM41 °FPartly cloudy.22 mph61%29.89 "HgN/A
3:50 PM41 °FScattered clouds.20 mph61%29.89 "HgN/A
3:20 PM41 °FPassing clouds.17 mph57%29.89 "HgN/A
2:50 PM41 °FPassing clouds.23 mph57%29.86 "HgN/A
2:20 PM43 °FScattered clouds.22 mph57%29.86 "HgN/A
1:50 PM41 °FScattered clouds.23 mph61%29.86 "HgN/A
1:20 PM41 °FScattered clouds.24 mph61%29.83 "HgN/A
12:50 PM41 °FScattered clouds.26 mph61%29.86 "HgN/A
12:20 PM41 °FScattered clouds.24 mph61%29.86 "HgN/A
11:50 AM41 °FScattered clouds.23 mph66%29.86 "HgN/A
11:20 AM41 °FScattered clouds.20 mph66%29.83 "HgN/A
10:50 AM41 °FScattered clouds.16 mph66%29.86 "HgN/A
10:20 AM41 °FScattered clouds.22 mph66%29.86 "HgN/A
9:50 AM41 °FSunny.16 mph66%29.86 "Hg10 mi
9:20 AM39 °FSunny.13 mph75%29.86 "Hg10 mi
8:50 AM37 °FPartly sunny.6 mph81%29.86 "HgN/A
8:20 AM36 °FPartly sunny.7 mph81%29.89 "Hg4 mi
7:50 AM34 °FPartly sunny.8 mph87%29.86 "Hg4 mi
7:20 AM34 °FPartly sunny.5 mph87%29.86 "Hg4 mi
6:50 AM34 °FOvercast.6 mph81%29.86 "Hg5 mi
6:20 AM34 °FOvercast.6 mph81%29.86 "Hg5 mi
5:50 AM34 °FOvercast.8 mph81%29.86 "Hg5 mi
5:20 AM32 °FPassing clouds.7 mph87%29.86 "Hg5 mi
4:50 AM32 °FPassing clouds.7 mph87%29.86 "Hg5 mi
4:20 AM32 °FPassing clouds.5 mph87%29.89 "Hg5 mi
3:50 AM32 °FPassing clouds.7 mph87%29.89 "Hg5 mi
3:20 AM34 °FOvercast.5 mph87%29.89 "Hg5 mi
2:50 AM34 °FPassing clouds.6 mph87%29.89 "Hg6 mi
2:20 AM36 °FPassing clouds.5 mph81%29.92 "Hg6 mi
1:50 AM34 °FPassing clouds.7 mph81%29.92 "Hg6 mi
1:20 AM36 °FOvercast.9 mph81%29.89 "Hg6 mi
Weather by CustomWeather, © 2015

See weather overviewHow to use our weather pages